Starlink 30331

operational
NORAD ID: 57740 Int'l Des: 2023-131 Owner: SPXS Country: US Constellation: starlink
LEOCIRCULAR

Starlink 30331について

説明を読み込み中...

リアルタイム位置

3D地球を読み込み中...

次回通過

高度履歴

Altitude vs Time

uPlot chart will show altitude changes over time

軌道要素

1 57740U 23131J 25352.27686619 -.00000129 00000-0 48168-5 0 9990
2 57740 42.9988 199.1757 0001105 261.6024 98.4703 15.27578671128328
Epoch: Dec 18, 2025 • Age: 9 hours

現在のステータス

高度 488.6 km
速度 7.62 km/s
衛星直下点 -24.38°S, 157.9°W
打ち上げ日 Sep 1, 2023
運用期間 2.2 years
タイプ internet

技術仕様

分類 Payload
質量 730.00 kg
乾燥質量 700.00 kg
総質量 730.00 kg
長さ 0.30 m
直径 4.10 m
スパン 29.00 m
形状 Box + pan
製造者 SPXS
バスタイプ Starlink V2M
フェーズステータス In Orbit
所有者/国 SPXS/US

大規模コンステレーション

Loading constellations...